World > North America > United States > North Carolina

Orrum, North Carolina Regional Weather

Lat: 34.47N, Lon: 79.01W
Wx Zone: NCZ087Web Search
Orrum Weather Warning NWS WEATHER ALERT FOR THE ORRUM, NC AREA - Issued: 657 AM EDT Sat May 8 2021 Orrum Weather Warning  

If you are on your PC, you can easily pass this page to your phone by scanning the QR Code near the bottom with your camera.

Feedback


°F Click to change Orrum hourly weather to Imperial units.Click to change Orrum hourly weather to Metric units. °C
Orrum Weather Map
UTC Time: 5/8/2021, 17:09
Your Time:

Orrum, NC Regional Weather

Expires:202105081700;;793218
ASUS42 KRAH 081610
RWRRAH
NORTH CAROLINA WEATHER ROUNDUP
NATIONAL WEATHER SERVICE RALEIGH NC
1200 PM EDT SAT MAY 08 2021

NOTE: "FAIR" INDICATES FEW OR NO CLOUDS BELOW 12,000 FEET WITH NO
SIGNIFICANT WEATHER AND/OR OBSTRUCTIONS TO VISIBILITY.


NCZ078-087-090-091-093-098-101-081700-
SOUTHEASTERN NORTH CAROLINA
  
CITY           SKY/WX    TMP DP  RH WIND       PRES   REMARKS
GOLDSBORO      SUNNY     70  44  39 W18G24    29.97F                  
KINSTON        SUNNY     70  45  40 W14G20    30.00F                  
KENANSVILLE    SUNNY     72  43  35 W13G22    30.01F                  
NEW BERN       SUNNY     71  40  32 W17G23    30.00F                  
CHERRY POINT   SUNNY     72  38  29 W22G29    30.01F                  
BEAUFORT       SUNNY     70  44  39 SW17      30.01F                  
JACKSONVILLE   SUNNY     71  40  32 W17G23    30.01                   
WILMINGTON     SUNNY     74  38  27 W15G26    30.04F                  
$$

  

SKY/WX - Weather  TMP - Temperature  DP - Dew Point  RH - Relative Humidity
WIND - Wind Direction/Speed PRES - Barometric Pressure VSB - Visibility
WCI - Wind Chill Index E13G22 Wind - East Wind 13 mph/Gusts of 22 mph